EHI
0 0 0 0 0 0 0 0 0 0 0 0 0 0 0 0 0 0 0 0 0 0 0 0 0 0 0 0 0 0 0 0 0 0 0 0 1 1 1 0 0 0 0
0 0 0 0 0 0 0 0 0 0 0 0 0 0 0 0 0 0 0 0 0 0 0 0 0 0 0 0 0 0 0 0 0 0 0 0 0 0 0 0 0 0 0
0 0 0 0 0 0 0 0 0 0 0 0 0 0 0 0 0 0 0 0 0 0 0 0 0 0 0 0 0 0 0 0 0 0 0 0 0 0 0 0 0 0 0
0 0 0 0 0 0 0 0 0 0 0 0 0 0 0 0 0 0 0 0 0 0 0 0 0 0 0 0 0 0 0 0 0 0 0 0 0 0 0 0 0 0 0
0 0 0 0 0 0 0 0 0 0 0 0 0 0 0 0 0 0 0 0 0 0 0 0 0 0 0 0 0 0 0 0 0 0 0 0 0 0 0 0 0 0 0
1 0 0 0 0 0 0 0 0 0 0 0 0 0 0 0 0 0 0 0 0 0 0 0 0 0 0 0 0 0 0 0 0 0 0 0 0 0 0 0 0 0 0
2 1 0 0 0 0 0 0 0 0 0 0 0 0 0 0 0 0 0 0 0 0 0 0 0 0 0 0 0 0 0 0 0 0 0 0 0 0 0 0 0 0 0
3 1 0 0 0 0 0 0 0 0 0 0 0 0 0 0 0 0 0 0 0 0 0 0 0 0 0 0 0 0 0 0 0 0 0 0 0 0 0 0 0 0 0
4 2 0 0 0 0 0 0 0 0 0 0 0 0 0 0 0 0 0 0 0 0 0 0 0 0 0 0 0 0 0 0 0 0 0 0 0 0 0 0 0 0 0
2 1 0 0 0 0 0 0 0 0 0 0 0 0 0 0 0 0 0 0 0 0 0 0 0 0 0 0 0 0 0 0 0 0 0 0 0 0 0 0 0 0 0
1 1 0 0 0 0 0 0 0 0 0 0 0 0 0 0 0 0 0 0 0 0 0 0 0 0 0 0 0 0 0 0 0 0 0 0 0 0 0 0 0 0 0
2 1 0 0 0 0 0 0 0 0 0 0 0 0 0 0 0 0 0 0 0 0 0 0 0 0 0 0 0 0 0 0 0 0 0 0 0 0 0 0 0 0 0
1 1 0 0 0 0 0 0 0 0 0 0 0 0 0 0 0 0 0 0 0 0 0 0 0 0 0 0 0 0 0 0 0 0 0 0 0 0 0 0 0 0 0
0 0 0 0 0 0 0 0 0 0 0 0 0 0 0 0 0 0 0 0 0 0 0 0 0 0 0 0 0 0 0 0 0 0 0 0 0 0 0 0 0 0 0
0 0 0 0 0 0 0 0 0 0 0 0 1 0 0 0 0 0 0 0 0 0 0 0 0 0 0 0 0 0 0 0 0 0 0 0 0 0 0 0 0 0 0
0 0 0 0 0 0 0 0 0 0 0 0 0 0 0 0 0 0 0 0 0 0 0 0 0 0 0 0 0 0 0 0 0 0 0 0 0 0 0 0 0 0 0
0 0 0 0 0 0 0 0 0 0 0 0 0 0 0 0 0 0 0 0 0 0 0 0 0 0 0 0 0 0 0 0 0 0 0 0 0 0 0 0 0 0 0
0 0 0 0 0 0 0 0 0 0 0 0 0 0 0 0 0 0 0 0 0 0 0 0 0 0 0 0 0 0 0 0 0 0 0 0 0 0 0 0 0 0 0
0 0 0 0 0 0 0 0 0 0 0 0 0 0 0 0 0 0 0 0 0 0 0 0 0 0 0 0 0 0 0 0 0 0 0 0 0 0 0 0 0 0 0
0 0 0 0 0 0 0 0 0 0 0 0 0 0 0 0 0 0 0 0 0 0 0 0 0 0 0 0 0 0 0 0 0 0 0 0 0 0 0 0 0 0 0
0 0 0 0 0 0 0 0 0 0 0 0 0 0 0 0 0 0 0 0 0 0 0 0 0 0 0 0 0 0 0 0 0 0 0 0 0 0 0 0 0 0 0
0 0 0 0 0 0 0 0 0 0 0 0 0 0 0 0 0 0 0 0 0 0 0 0 0 0 0 0 0 0 0 0 0 0 0 0 0 0 0 0 0 0 0
0 0 0 0 0 0 0 0 0 0 0 0 0 0 0 0 0 0 0 0 0 0 0 0 0 0 0 0 0 0 0 0 0 0 0 0 0 0 0 0 0 0 0
0 0 0 0 0 0 0 0 0 0 0 0 0 0 0 0 0 0 0 0 0 0 0 0 0 0 0 0 0 0 0 0 0 0 0 0 0 0 0 0 0 0 0
0 0 0 0 0 0 0 0 0 0 0 0 0 0 0 0 0 0 0 0 0 0 0 0 0 0 0 0 0 0 0 0 0 0 0 0 0 0 0 0 0 0 0
0 0 0 0 0 0 0 0 0 0 0 0 0 0 0 0 0 0 0 0 0 0 0 0 0 0 0 0 0 0 0 0 0 0 0 0 0 0 0 0 0 0 0
Wind_Speed
6 5 5 4 4 3 4 4 4 4 4 4 3 4 5 5 5 4 3 6 6 5 5 5 5 5 5 5 5 6 6 6 6 6 5 5 5 5 5 4 4 3 2
7 6 6 5 5 5 5 4 5 4 4 3 4 5 6 6 5 5 3 4 6 5 5 6 6 5 5 5 5 5 5 5 5 5 5 5 5 5 4 4 4 3 3
8 7 6 6 6 6 5 3 3 3 3 3 4 5 5 5 6 5 4 3 3 5 6 6 6 6 6 6 6 5 5 5 5 5 5 5 5 5 4 4 4 4 4
8 7 6 6 6 4 4 3 3 3 3 2 2 2 3 4 5 5 4 4 3 3 4 6 6 5 5 6 6 6 6 5 5 5 4 4 4 5 5 5 5 5 4
8 6 5 5 5 4 3 4 2 3 3 3 2 2 2 3 4 5 4 5 4 4 3 5 7 6 6 6 6 6 6 5 5 4 4 4 4 4 5 5 5 6 6
7 6 4 5 5 4 3 3 3 2 2 2 2 1 0 1 2 3 5 5 5 5 5 4 4 4 6 6 6 6 6 6 5 5 5 4 4 4 5 5 5 6 6
6 6 5 5 4 4 4 4 3 3 2 2 3 2 2 1 2 3 3 4 5 6 5 5 4 3 3 7 7 7 7 7 6 5 4 4 4 4 5 5 5 6 6
5 6 6 5 5 4 4 4 3 3 2 2 3 2 1 3 3 2 2 4 5 5 6 7 5 5 4 3 5 8 7 7 7 6 4 4 3 4 4 5 5 6 6
5 5 5 5 5 5 5 4 4 5 3 1 2 4 3 4 2 3 2 2 4 4 5 5 6 6 6 4 4 7 8 7 7 7 5 5 4 3 4 4 5 5 5
4 5 5 5 5 4 4 5 4 4 4 3 2 2 3 4 3 2 2 1 2 4 5 4 6 6 6 5 6 9 10 9 8 8 7 5 4 4 4 5 5 4 4
4 4 5 4 4 4 4 4 3 3 3 4 3 2 2 2 2 2 2 2 2 2 3 4 4 5 7 6 6 9 11 10 10 9 8 7 6 5 4 4 4 4 4
2 3 4 4 4 4 4 4 4 4 4 4 3 3 3 3 3 3 3 3 2 3 2 3 3 4 5 6 9 13 13 12 11 10 8 7 7 6 5 5 5 4 4
2 2 2 2 3 3 3 3 3 3 4 4 4 4 4 4 3 3 3 3 2 2 2 2 3 4 5 5 6 13 13 13 12 11 9 8 7 7 6 6 6 5 4
2 2 2 2 2 2 3 3 2 3 3 4 5 4 3 4 4 4 4 4 2 2 2 3 2 3 4 5 7 12 8 14 13 12 11 9 8 7 7 7 6 5 4
1 2 2 2 2 2 2 2 2 3 3 4 3 4 3 3 3 3 3 4 4 3 3 3 2 2 2 3 6 6 5 11 13 12 11 10 9 8 8 7 6 4 3
1 2 1 1 2 2 3 3 3 3 4 3 3 3 3 2 2 3 3 3 3 4 3 2 2 2 1 2 5 5 6 9 12 12 11 11 10 10 9 8 7 6 5
2 1 0 1 1 1 1 2 2 3 3 3 3 3 3 3 2 2 2 2 3 3 3 2 2 1 1 1 1 2 3 4 5 10 12 12 12 11 11 10 8 7 7
3 3 2 2 2 2 1 1 1 2 3 3 3 3 3 2 2 2 2 2 2 3 3 2 1 1 1 1 1 2 2 4 4 7 11 12 12 12 11 10 9 9 8
5 4 4 4 3 3 2 1 2 2 1 1 2 3 3 3 2 2 2 2 1 1 2 2 1 1 1 0 0 0 1 1 2 4 8 10 11 11 11 10 10 10 9
6 6 5 4 4 4 3 3 2 2 2 1 1 2 3 4 4 3 2 2 2 2 1 1 0 0 0 1 1 0 1 1 1 2 2 4 7 10 10 10 10 10 11
7 6 6 5 4 4 4 4 2 2 2 2 2 1 2 3 5 4 3 2 3 2 2 1 1 1 1 1 0 0 0 1 1 1 1 1 2 2 4 7 10 11 11
7 7 7 6 7 6 8 7 3 2 2 3 2 1 1 2 3 4 5 5 5 3 3 2 1 1 1 1 0 0 0 1 1 1 0 1 1 2 2 2 5 7 9
6 6 6 6 5 6 10 8 6 3 3 2 2 2 2 2 3 2 3 3 3 3 4 3 2 2 1 2 1 0 0 1 1 1 0 1 1 1 2 2 3 4 5
5 5 6 6 5 8 12 10 8 4 4 3 3 3 3 2 1 3 3 3 2 1 1 2 2 2 1 2 2 2 1 0 1 1 0 0 1 1 1 1 3 3 3
5 5 5 6 6 8 13 12 8 4 4 4 4 3 3 3 3 4 4 4 3 2 2 3 3 3 3 3 3 2 2 2 2 2 1 1 1 2 2 2 3 5 4
5 5 6 6 7 7 13 13 8 3 4 4 4 4 5 5 5 5 4 4 3 1 2 3 3 4 4 3 4 2 2 1 1 1 1 1 2 2 2 2 2 3 3
Wind_Direction
193 191 198 202 211 212 212 215 220 231 239 240 214 177 165 159 155 161 161 157 155 158 162 167 166 167 166 164 164 166 163 162 164 163 160 162 159 155 156 159 161 162 165
191 191 197 200 210 215 217 214 213 213 215 193 161 150 156 159 163 167 169 164 159 160 171 174 174 171 167 165 167 170 169 170 174 176 177 178 178 175 176 181 189 193 198
192 191 195 198 207 211 213 209 203 190 178 158 139 139 149 159 167 175 172 167 168 172 172 175 176 181 183 182 179 179 178 178 181 187 189 191 193 192 197 203 210 215 221
192 182 187 196 196 190 189 182 171 154 153 145 144 147 144 156 174 180 178 177 177 178 182 180 179 185 191 191 190 189 191 188 189 195 198 198 205 207 213 217 219 224 229
193 176 180 184 172 164 171 171 152 143 148 153 163 156 154 158 170 180 184 190 190 185 185 188 182 185 192 195 195 195 197 197 198 202 203 205 212 220 226 230 233 235 237
183 168 170 171 154 146 151 147 136 126 137 150 134 114 165 189 178 183 191 191 193 192 192 190 184 194 196 195 200 200 203 205 207 214 216 215 220 228 232 238 242 243 244
168 164 164 159 151 152 160 151 133 124 119 123 94 40 340 315 250 214 190 182 193 196 193 197 194 194 200 203 200 203 207 208 212 218 224 223 227 235 241 244 247 251 251
165 173 163 160 158 149 151 151 141 134 138 140 129 115 341 328 308 262 199 191 196 193 198 204 201 201 200 195 209 207 205 209 213 217 221 227 233 240 247 254 257 261 259
164 164 165 157 164 161 167 169 159 152 158 175 157 148 162 222 283 309 261 210 191 195 204 203 205 206 203 198 205 215 207 206 212 216 221 228 233 238 252 261 264 267 265
152 154 165 162 167 169 174 181 172 164 153 167 186 191 172 162 170 283 317 297 218 202 204 208 207 205 202 198 205 209 208 205 211 218 223 226 232 240 246 259 263 263 268
148 156 160 162 169 169 178 180 169 170 165 170 177 178 180 178 162 168 255 296 300 249 218 211 204 204 202 199 200 209 209 207 210 214 221 228 233 240 246 254 260 262 267
145 168 165 171 170 166 174 180 186 188 190 187 189 183 173 173 187 181 205 232 252 267 248 226 211 207 202 199 206 207 207 207 209 210 216 226 235 242 246 248 253 261 271
145 181 159 159 161 167 182 182 189 202 199 198 203 204 199 197 173 169 181 206 232 272 284 259 227 209 206 196 209 207 208 207 209 209 211 215 226 237 241 247 251 252 260
155 158 141 138 159 184 194 192 195 208 206 214 220 211 200 201 183 173 171 166 189 269 282 266 272 222 211 195 210 207 211 210 210 211 211 212 216 224 232 241 248 250 254
143 144 150 155 194 201 203 204 212 213 201 207 206 200 193 191 181 182 174 169 165 195 252 264 266 269 234 205 208 201 206 214 213 214 215 215 217 220 226 231 231 234 236
80 124 159 201 224 219 203 196 202 206 190 191 185 178 178 182 181 176 179 178 169 171 215 251 250 260 264 213 200 194 209 219 220 219 220 220 220 220 221 222 221 219 218
57 88 161 221 234 224 210 185 193 189 175 174 174 172 177 169 163 169 167 161 168 165 201 255 264 273 262 241 185 194 208 216 224 226 224 225 223 223 223 224 222 221 222
33 35 35 45 43 44 52 105 179 160 158 163 161 156 169 155 155 166 162 171 177 177 180 223 268 281 262 241 207 209 218 219 218 230 228 227 226 225 224 225 225 227 229
32 34 44 53 51 50 51 56 90 98 98 130 153 159 165 152 161 163 163 174 178 170 168 182 240 284 309 343 69 290 259 256 236 236 230 231 230 228 228 228 230 233 235
38 39 49 55 53 48 42 34 50 69 60 56 113 163 168 169 170 161 153 158 144 125 127 139 168 317 328 348 75 356 325 314 285 283 247 227 228 231 233 235 237 238 240
40 40 50 47 46 51 41 37 38 61 69 72 67 103 157 168 167 160 150 146 133 120 108 101 91 47 3 16 342 317 290 309 299 310 302 262 227 228 234 241 244 245 244
34 44 48 46 43 39 34 39 43 60 79 96 103 98 123 126 128 125 134 140 141 137 139 135 137 160 245 231 205 161 52 14 318 332 349 295 228 245 245 235 253 258 255
33 39 37 38 37 24 28 33 42 65 70 82 105 123 113 89 90 99 108 107 93 114 142 152 157 194 206 205 162 136 189 212 253 295 24 306 319 280 270 258 266 276 278
28 33 33 29 26 22 28 34 45 58 69 72 81 99 102 88 90 130 121 106 87 60 99 126 153 184 193 182 172 180 193 174 331 344 59 313 333 315 313 313 327 327 313
32 35 34 31 28 16 25 34 49 60 70 64 64 74 85 85 87 122 118 113 89 38 58 97 106 97 89 109 122 93 62 61 27 352 7 22 335 326 338 351 1 14 14
36 38 38 31 28 21 22 32 46 63 70 64 57 52 56 71 83 101 111 119 116 81 79 77 60 48 50 62 77 91 116 96 78 356 343 34 355 5 8 351 1 9 12